Regional Weather Roundup
Issued by NWS

Home | Current Version | Previous Version | Graphics & Text | Print | Product List | Glossary On
Versions: 1 2 3 4 5 6 7 8 9 10 11 12 13 14 15 16 17 18 19 20 21 22 23 24 25 26 27 28 29 30 31 32 33 34 35 36 37 38 39 40 41 42 43 44 45 46 47 48 49 50
000
ASUS45 KCYS 241410
RWRWY

WYOMING REGIONAL WEATHER ROUNDUP
NATIONAL WEATHER SERVICE CHEYENNE WY
800 AM MDT SUN MAY 24 2015

NOTE:  "FAIR" INDICATES FEW OR NO CLOUDS BELOW 12,000 FEET
WITH NO SIGNIFICANT WEATHER AND/OR OBSTRUCTIONS TO VISIBILITY.

WYZ001-241500-
YELLOWSTONE NATIONAL PARK

CITY           SKY/WX    TMP DP  RH WIND       PRES   REMARKS
LK YELLOWSTONE   N/A     39  32  76 VRB3      30.08S
W YELLOWSTONE  NOT AVBL

$$
WYZ002>013-054>058-071-098>099-241500-
NORTHERN WYOMING

CITY           SKY/WX    TMP DP  RH WIND       PRES   REMARKS
JACKSON        PTSUNNY   39  37  93 CALM      30.01S
CODY           CLOUDY    46  43  87 N15       30.03S
GREYBULL       CLOUDY    52  45  77 NW17      29.94S
WORLAND        LGT RAIN  49  46  90 NW7       29.95F
SHERIDAN       RAIN      49  47  93 NW9       30.00F FOG
BUFFALO        RAIN      47  45  93 NW21G29   29.99S FOG
GILLETTE       LGT RAIN  50  48  93 NE10      29.95S
HULETT         LGT RAIN  50  48  93 NE10      29.97F
NEWCASTLE      LGT RAIN  50  50 100 W3        29.93F

$$
WYZ014>020-022>026-101>103-241500-
CENTRAL WYOMING

CITY           SKY/WX    TMP DP  RH WIND       PRES   REMARKS
BIG PINEY      PTSUNNY   41  37  86 CALM      29.98F
PINEDALE       CLOUDY    39  37  93 W8        29.98F WCI  34
DUBOIS         DRIZZLE   36  34  93 W5        30.00S WCI  32
LANDER         RAIN      43  39  86 W9        29.97R FOG
RIVERTON       RAIN      44  41  89 N13       29.97S FOG
CASPER         CLOUDY    45  42  89 CALM      29.91F
DOUGLAS        CLOUDY    48  46  93 CALM      29.91S FOG

$$
WYZ021-027>030-104>119-241500-
SOUTHERN WYOMING

CITY           SKY/WX    TMP DP  RH WIND       PRES   REMARKS
EVANSTON       PTSUNNY   39  38  96 SW6       30.00S WCI  35
KEMMERER       FAIR      39  37  93 CALM      30.00S
FORT BRIDGER   CLOUDY    43  43 100 W10       30.01F
ROCK SPRINGS   RAIN      36  34  92 E5        29.98S FOG     WCI  32
DIXON          MIX PCPN  36  34  93 W5        29.99S WCI  32
RAWLINS        CLOUDY    36  34  92 CALM      29.94F
SARATOGA       DRIZZLE   36  34  93 NW3       29.95F
LARAMIE        PTSUNNY   42  36  79 SW5       29.92F
CHEYENNE       FAIR      46  40  79 CALM      29.90F
TORRINGTON     PTSUNNY   51  49  92 E6        29.87F
PINE BLUFFS    CLOUDY    46  45  93 CALM      29.91F

$$


USA.gov is the U.S. government's official web portal to all federal, state and local government web resources and services.